User: anonymous   Login
Location: ???????
(54.9996°N, 37.9529°E)
Time: 07:24:16
(UTC+00:00)
Language:

CZ-2D R/B - Orbit

View from above orbital plane
View from above orbital plane
View from above satellite
View from above satellite

Ground track
Ground track

The orbit data is extracted from the following two-line orbital elements,

1 37932U 11068C   24164.81695678  .00000204  00000-0  11081-3 0  9997
2 37932  98.7966 106.6067 0036157 214.8493 199.6314 14.22520296652054
Epoch (UTC): 12 June 2024 19:36:25
Eccentricity: 0.0036157
inclination: 98.7966°
perigee height: 791 km
apogee height: 843 km
right ascension of ascending node: 106.6067°
argument of perigee: 214.8493°
revolutions per day: 14.22520296
mean anomaly at epoch: 199.6314°
orbit number at epoch: 65205

The dashed part of the orbit path shows where the satellite is in the earth's shadow,  

DLR